Regional Weather Roundup
Issued by NWS Charleston, SC

Current Version | Previous Version | Graphics & Text | Print | Product List | Glossary On
Versions: 1 2 3 4 5 6 7 8 9 10 11 12 13 14 15 16 17 18 19 20 21 22 23 24 25 26 27 28 29 30 31 32 33 34 35 36 37 38 39 40 41 42 43 44 45 46 47 48 49 50
000
ASUS42 KCHS 241211
RWRCHS

REGIONAL WEATHER ROUNDUP
NATIONAL WEATHER SERVICE CHARLESTON SC
700 AM EST FRI FEB 24 2017

NOTE: "FAIR" INDICATES FEW OR NO CLOUDS BELOW 12,000 FEET WITH NO
SIGNIFICANT WEATHER AND/OR OBSTRUCTIONS TO VISIBILITY.

NOT ALL STATIONS ARE QUALITY CONTROLLED. USE DATA WITH CAUTION...
ESPECIALLY DEWPOINT OBSERVATIONS.

SCZ027-030-031-034>040-042>050-241300-
...SOUTHEAST SOUTH CAROLINA...

CITY           SKY/WX    TMP DP  RH WIND       PRES   REMARKS
N CHARLESTON   PTCLDY    57  56  96 N3        29.87R
6HR MIN TEMP:  57; 6HR MAX TEMP:  59;

WATERFRONT PRK   N/A     60  60 100 N6        29.86S
MOUNT PLEASANT FAIR      57  57 100 CALM      29.87S FOG
JOHNS ISLAND   FAIR      59  59 100 N5        29.87R
PINOPOLIS        N/A     57  57 100 NE5       29.79S
MONCKS CORNER  FAIR      55  54  94 CALM      29.88S
SUMMERVILLE      N/A     52  52 100 CALM      29.89S FOG
BEAUFORT MCAS  CLEAR     57  57 100 N3        29.87R
6HR MIN TEMP:  57; 6HR MAX TEMP:  62;

BEAUFORT ARPT  FAIR      59  59 100 N5        29.87R
HILTON HEAD IS CLEAR     61  61 100 N7        29.87R
WALTERBORO     FOG       52  52 100 CALM      29.89R VSB 1
ALLENDALE      PTSUNNY   57  57 100 CALM      29.88S FOG

...SOUTHERN MIDLANDS AND PEE DEE...

CITY           SKY/WX    TMP DP  RH WIND       PRES   REMARKS
GEORGETOWN     FAIR      54  54 100 NE3       29.89S
KINGSTREE      FAIR      54  52  94 CALM      29.89S
ORANGEBURG     CLEAR     53  52  96 CALM      29.90S FOG
6HR MIN TEMP:  53; 6HR MAX TEMP:  58;

BARNWELL       FAIR      55  55 100 CALM      29.89S FOG
AIKEN          FOG       46  46 100 CALM      29.94R VSB 1/4
MANNING        FAIR      52  50  93 MISG      29.90S FOG
COLUMBIA       CLEAR     50  46  86 CALM      29.90R
6HR MIN TEMP:  49; 6HR MAX TEMP:  55;

SUMTER         CLEAR     52  51  95 NE6       29.88S
6HR MIN TEMP:  52; 6HR MAX TEMP:  55;

FLORENCE       PTCLDY    54  54 100 NE5       29.90S
6HR MIN TEMP:  53; 6HR MAX TEMP:  56;

MYRTLE BEACH   PTCLDY    57  55  94 N7        29.91R
N MYRTLE BEACH CLEAR     56  56 100 NE6       29.89R
6HR MIN TEMP:  56; 6HR MAX TEMP:  58;


$$

GAZ063-065-086>088-099>101-113>116-118-119-134>141-150-241300-
...SOUTHEAST GEORGIA...

CITY           SKY/WX    TMP DP  RH WIND       PRES   REMARKS
SAVANNAH ARPT  PTCLDY    58  56  93 N3        29.87R
6HR MIN TEMP:  58; 6HR MAX TEMP:  61;

HUNTER AAF     CLEAR     59  59 100 N5        29.84R
6HR MIN TEMP:  59; 6HR MAX TEMP:  62;

FORT STEWART   PTCLDY    57  56  95 CALM      29.84S
6HR MIN TEMP:  57; 6HR MAX TEMP:  61;

STATESBORO     CLOUDY    52  32  45 CALM      29.88S
SYLVANIA       FOG      N/A N/A N/A CALM      29.89S VSB 3/4
CLAXTON        FAIR     N/A N/A N/A CALM      29.88R HAZE

...CSRA...CENTRAL AND FAR SOUTHEAST GEORGIA...

CITY           SKY/WX    TMP DP  RH WIND       PRES   REMARKS
THOMSON        PTCLDY    48  48 100 CALM      29.94S
AUGUSTA-BUSH   CLEAR     51  49  92 CALM      29.90R
6HR MIN TEMP:  50; 6HR MAX TEMP:  56;

AUGUSTA-DANIEL PTCLDY    59  54  83 CALM      29.90S
SWAINSBORO     FAIR      57  57 100 CALM      29.90S
VIDALIA        FOG       55  55 100 N3        29.88R VSB 1/2
EASTMAN        FOG       51  50  99 CALM      29.91S VSB 1/2
HAZLEHURST     FOG       57  57 100 CALM      29.88R VSB 1/4
ALMA           CLEAR     57  57 100 CALM      29.86R FOG
6HR MIN TEMP:  57; 6HR MAX TEMP:  61;

WAYCROSS       FOG       59  59 100 CALM      29.85S VSB 1/4
JESUP          FAIR      61  57  88 NE3       29.86R
BAXLEY         FOG       57  57 100 NE3       29.87R VSB 1
BRUNSWICK      CLEAR     59  59 100 CALM      29.85S FOG
SAINT SIMONS   MOCLDY    63  61  93 N9        29.84R
6HR MIN TEMP:  63; 6HR MAX TEMP:  65;


$$

SCZ027-028-034-036>038-045-046-048>050-GAZ119-141-241300-
...LAKE AND SUPPLEMENTAL COASTAL OBSERVATIONS...

STATION/POSITION TIME  TEMP    WIND        PRES    WAVE   SWELL
                       AIR SEA DIR/SP/G            HT/PER HT/PER/DIR
                 (UTC) (F)     (DEG/KT/KT) (MB)    (FT/S) (FT/S/D)
WINYAH BAY       1045   61      30/  6     1011.0
LAKE MURRAY      1120   55        CALM     1012.2
ACE BASIN NERRS  1045   58      10/  1     1011.0
FORT PULASKI     1148   62 62   30/  2/  4 1011.2R
SAPELO ISLAND    1100   62      20/  6     1010.0

$$

ANZ835-935-AMZ111-154-330-350-352-354-370-450-454-472-241300-
...C-MAN AND BUOY OBSERVATIONS...

STATION/POSITION TIME  TEMP    WIND        PRES    WAVE   SWELL
                       AIR SEA DIR/SP/G            HT/PER HT/PER/DIR
                 (UTC) (F)     (DEG/KT/KT) (MB)    (FT/S) (FT/S/D)
BUOY 41004       1050   69 70   30/ 10/ 12 1009.9    9/10  10/120/10
BUOY 41008       1050   63 62   30/ 12/ 14 1009.1    6/10   5/130/10
FOLLY BEACH CMAN 1100   61      20/  8/  9 1011.5S
CAPERS NEARSHORE 1108   61 60   40/ 10/ 14 1010.9R
FRIPP NEARSHORE  1108   62 61   30/ 10/ 14 1010.2S


STATION/POSITION TIME  TEMP    WIND        PRES    WAVE   SWELL
                       AIR SEA DIR/SP/G            HT/PER HT/PER/DIR
                 (UTC) (F)     (DEG/KT/KT) (MB)    (FT/S) (FT/S/D)
5E ST. MARYS GA  1130      63                N/A     6/10   2/ 90/11
FRYING PAN BUOY  1150   71 72   70/ 10/ 12 1011.1R   8/11   8/150/11
BUOY 41025       1150   70 73  120/ 16/ 17 1013.0R   7/ 8   5/130/ 8
CAPE LOOKOUT NC  1100   62      30/  4/  5 1012.3R
BUOY 41002       1150   69 70   70/ 25/ 31 1007.1F  12/10   8/130/10
BUOY 41010       NOT AVBL
ST AUGUSTINE FL  1200   65 66  360/ 13/ 15 1010.1R


$$



USA.gov is the U.S. government's official web portal to all federal, state and local government web resources and services.